Flag for Colombia Weather past 2 weeks in Buenaventura, Colombia

Now
79 °F

Scattered showers. Broken clouds.


Feels Like: 81 °F
Forecast: N/A
Wind: 12 mph from Northwest

Location: Cali / Alfonso Bonillaaragon

Current Time: Sep 2, 2014 at 5:08:51 PM

Latest Report: Sep 2, 2014 at 5:00 PM


Visibility: N/A

Pressure: 29.87 "Hg

Humidity: 65%

Dew point: 66 °F

Location of BuenaventuraLocation

Historic Weather in Buenaventura — Graph

°F

Buenaventura temperature yesterday

Maximum temperature yesterday: 91 °F (at 2:00 PM)
Minimum temperature yesterday: 66 °F (at 5:00 AM)
Average temperature yesterday: 77 °F

Past Weeks' High & Low Weather Summary

 TemperatureHumidityPressure
High95 °F (Aug 30, 4:00 PM)94% (Aug 20, 2:00 AM)30.09 "Hg (Aug 20, 2:00 AM)
Low63 °F (Aug 31, 4:00 AM)28% (Aug 19, 2:00 PM)29.80 "Hg (Aug 24, 4:00 PM)
Average76 °F69%29.95 "Hg
* Reported Aug 18 4:00 PM — Sep 2 4:00 PM, Buenaventura, Weather by CustomWeather, © 2014

Note: Actual official high and low records may vary slightly from our data, if they occured in-between our weather recording intervals... More about our weather records

Advertising

Buenaventura weather history for previous 24 hours

 ConditionsComfort  
Time TempWeatherWind HumidityBarometerVisibility
4:00 PM
Sep 2
81 °FScattered showers. Broken clouds.N/A66%29.86 "Hg6 mi
3:00 PM84 °FThunderstorms. Broken clouds.7 mph55%29.87 "Hg6 mi
2:00 PM84 °FBroken clouds.7 mph51%29.88 "Hg6 mi
1:00 PM84 °FBroken clouds.6 mph55%29.93 "Hg6 mi
12:00 PM82 °FBroken clouds.7 mph55%29.96 "Hg6 mi
11:00 AM82 °FBroken clouds.6 mph55%29.99 "Hg6 mi
10:00 AM79 °FBroken clouds.3 mph65%30.02 "Hg6 mi
9:00 AM77 °FBroken clouds.3 mph69%30.02 "Hg5 mi
8:00 AM73 °FPartly sunny.2 mph78%29.99 "Hg3 mi
7:00 AM72 °FBroken clouds.No wind83%29.96 "HgN/A
6:00 AM72 °FPartly sunny.No wind83%29.96 "HgN/A
5:00 AM72 °FPassing clouds.No wind83%29.95 "HgN/A
4:00 AM72 °FPassing clouds.No wind83%29.94 "HgN/A
3:00 AM72 °FPassing clouds.No wind83%29.93 "HgN/A
2:00 AM72 °FPassing clouds.5 mph83%29.94 "HgN/A
1:00 AM72 °FPassing clouds.No wind83%29.95 "HgN/A
12:00 AM72 °FPassing clouds.6 mph78%29.97 "HgN/A
11:00 PM
Sep 1
75 °FClear.9 mph69%29.97 "Hg10 mi
10:00 PM77 °FClear.9 mph65%29.97 "Hg10 mi
9:00 PM77 °FPassing clouds.13 mph65%29.98 "HgN/A
8:00 PM77 °FPassing clouds.9 mph65%29.89 "HgN/A
7:00 PM79 °FPassing clouds.14 mph61%29.85 "HgN/A
6:00 PM81 °FPartly sunny.14 mph62%29.83 "Hg6 mi
5:00 PM84 °FBroken clouds.17 mph55%29.82 "Hg6 mi
Weather by CustomWeather, © 2014

See weather overviewHow to use our weather pages